Regional Weather Roundup
Issued by NWS Grand Forks, ND

Home | Current Version | Previous Version | Graphics & Text | Print | Product List | Glossary On
Versions: 1 2 3 4 5 6 7 8 9 10 11 12 13 14 15 16 17 18 19 20 21 22 23 24 25 26 27 28 29 30 31 32 33 34 35 36 37 38 39 40 41 42 43 44 45 46 47 48 49 50
000
ASUS43 KFGF 300231
RWRFGF
PRAIRIE TO PINES  WEATHER ROUNDUP
NATIONAL WEATHER SERVICE EASTERN NORTH DAKOTA/GRAND FORKS ND
900 PM CDT WED JUL 29 2015

 **SATELLITE DATA USED TO AUGMENT SKY COVER AT AUTOMATED STATIONS**
 *****  WEATHER ACROSS EASTERN NORTH DAKOTA  *****

CITY           SKY/WX    TMP DP  RH WIND       PRES   REMARKS
GRAND FORKS    PTCLDY    71  58  63 W7        29.88R
GRAND FRKS AFB CLEAR     71  58  63 W7        29.90R
GRAND FRKS NWS   N/A     73 N/A N/A W10         N/A
DEVILS LAKE    CLEAR     70  54  56 W10       29.94R
FARGO          PTCLDY    72  60  66 W9        29.93R
WAHPETON ARPT  CLEAR     64  54  68 W8        29.98R
$$

 ***** WEATHER ACROSS CENTRAL AND WESTERN NORTH DAKOTA  *****

CITY           SKY/WX    TMP DP  RH WIND       PRES   REMARKS
BISMARCK       CLEAR     77  49  37 W8        30.04R
MINOT          CLEAR     73  52  47 W13       29.99R
JAMESTOWN      CLEAR     73  53  49 W12       29.99R
MINOT AFB      CLEAR     73  59  61 W9        29.98R
GARRISON         N/A     68  56  65 NW9       30.03R
WILLISTON      CLEAR     73  49  42 NW7       30.06S
DICKINSON      CLEAR     69  49  48 NW7       30.10R
HETTINGER      CLEAR     69  50  50 NW7       30.13R
$$

 *****  OTHER AIRPORT OBSERVATIONS IN OUR AREA  *****

CITY           SKY/WX    TMP DP  RH WIND       PRES   REMARKS
WALHALLA       FAIR      72  57  60 MISG      29.87S
GRAFTON AIRPOR FAIR      73  61  64 W9        29.88R
VALLEY CITY AR FAIR      68  57  68 W10       29.98R
CANDO          FAIR      66  59  77 W8        29.94S
CAVALIER APRT  FAIR      72  57  60 W7        29.87R
GWINNER        FAIR      66  59  77 W7        30.01R
SHEYENNE NWR     N/A     72  56  57 W6        29.95S
ROLLA          FAIR      63  57  82 W7        29.96R
 ***** THE ABOVE OBSERVATIONS ARE NON NWS ARE NOT QUALITY
       CONTROLLED AND MAY MIS-REPORT RAIN FOR SNOW...
$$

  *****  WEATHER ACROSS NORTHERN MINNESOTA  *****

CITY           SKY/WX    TMP DP  RH WIND       PRES   REMARKS
FLAG ISLAND    MOCLDY    70  55  60 W18       29.76R
WARROAD        PTCLDY    70  57  64 W12G18    29.82R
ROSEAU         PTCLDY    68  57  68 W6        29.83R
HALLOCK        PTCLDY    66  57  72 W6        29.85R
THF RVR FALLS  PTCLDY    68  57  68 W8        29.88R
BAUDETTE       MOCLDY    67  55  65 W7        29.79S
WASKISH        PTCLDY    70  55  60 W10       29.83R
CROOKSTON      PTCLDY    70  57  64 W8        29.89S
$$
  *****  WEATHER ACROSS CENTRAL AND WEST MINNESOTA  *****

CITY           SKY/WX    TMP DP  RH WIND       PRES   REMARKS
FOSSTON        MOCLDY    68  55  64 W10       29.90S
BEMIDJI        CLEAR     68  54  59 W12       29.88R
PARK RAPIDS    PTCLDY    70  54  56 W8        29.91R
ELBOW LAKE     FAIR      67  57  69 W8        29.98R
WADENA         PTCLDY    70  55  60 W8        29.94R
DETROIT LAKES  MOCLDY    72  54  53 W9        29.95S
MOORHEAD       PTCLDY    70  57  64 W8        29.94S
FERGUS FALLS   PTCLDY    68  57  68 W8        29.96R
MORRIS MN      CLEAR     66  57  72 W7        29.99S
STAPLES        PTCLDY    68  54  60 W8        29.93S
$$
  *****  WEATHER ELSEWHERE ACROSS MINNESOTA  *****

CITY           SKY/WX    TMP DP  RH WIND       PRES   REMARKS
DULUTH         PTCLDY    68  53  58 W9        29.83S
INTRNTL FALLS  CLOUDY    65  56  72 W8G17     29.78S
ELY            CLOUDY    70  48  46 W15G25    29.78R
CLOQUET        CLEAR     70  50  49 W8        29.86R
WHEATON        CLEAR     70  54  56 W6        30.01R
BRAINERD       PTCLDY    73  52  47 W9        29.91R
HIBBING        CLEAR     70  50  49 W10       29.82R
ALEXANDRIA     PTCLDY    71  57  61 W9        29.99R
SAINT CLOUD    CLEAR     71  55  56 W8        29.94R
MINNEAPOLIS    CLEAR     78  54  43 W12       29.95R
$$

  *****  WEATHER ACROSS SOUTH DAKOTA  *****

CITY           SKY/WX    TMP DP  RH WIND       PRES   REMARKS
SIOUX FALLS    PTCLDY    73  61  65 CALM      30.08S
BROOKINGS      CLEAR     72  55  56 W6        30.09S
WATERTOWN      CLEAR     72  54  53 NW6       30.06R
HURON          CLEAR     73  61  65 CALM      30.06R
SISSETON         N/A     71  57  61 W7        30.00R
ABERDEEN       CLEAR     74  50  42 NW5       30.04R
MITCHELL       CLEAR     77  52  41 W6        30.08R
PIERRE         CLEAR     79  43  27 W7        30.07R
MOBRIDGE       CLEAR     72  59  63 N3        30.05R
RAPID CITY     CLEAR     70  55  59 N8        30.17R
$$

  *****  SOME WEATHER IN NEARBY STATES *****

CITY           SKY/WX    TMP DP  RH WIND       PRES   REMARKS
GLASGOW MT     CLEAR     78  47  33 W6        30.06F
GREAT FALLS MT CLEAR     79  37  22 W9        30.14S
CHEYENNE WY    PTCLDY    73  50  44 S13G20    30.31R
SCOTTSBLUFF NE PTCLDY    79  53  40 SE7       30.19R
OMAHA NE       PTCLDY    78  57  48 SW5       30.13S
DES MOINES IA  PTCLDY    74  61  63 W8        30.10S
DAVENPORT IA   CLEAR     69  62  78 W7        30.06R
CHICAGO IL     PTCLDY    77  55  46 W8        29.99R
EAU CLAIRE WI  CLEAR     71  56  58 SW7       29.92R
LA CROSSE WI   CLEAR     76  54  46 W10       29.96S
$$

  *****  SOME NATIONAL WEATHER *****

CITY           SKY/WX    TMP DP  RH WIND       PRES   REMARKS
LA GUARDIA NY  PTCLDY    86  71  60 SW10      29.92R HX  91
RALEIGH NC     PTCLDY    82  68  62 SE3       29.99R
ATLANTA GA     MOCLDY    84  74  71 SE7       29.99R HX  91
NEW ORLEANS LA CLOUDY    78  73  84 S10       30.03R THUNDER
OKLAHOMA CITY  PTCLDY    86  73  65 E8        30.05R HX  93
ALBUQUERQUE NM LGT RAIN  72  59  63 S9        30.29R
SALT LAKE CITY PTCLDY    84  29  13 NW7       30.20S
LOS ANGELES CA MOSUNNY   70  64  81 W13       29.92S
BOISE ID       SUNNY     86  31  13 NW8       30.13S
SEATTLE WA     SUNNY     86  49  27 N13       30.09F
$$

*** WEATHER ACROSS MANITOBA...SASKATCHEWAN AND ONTARIO ***
                ***ONTARIO***

CITY           SKY/WX    TMP DP  RH WIND       PRES   REMARKS
GERALDTON      LGT RAIN  63  61  94 SW12      29.52S FOG
THUNDER BAY    PTCLDY    68  57  68 W10       29.65R
SIOUX LOOKOUT  LGT RAIN  63  57  82 W14G25    29.59R
TORONTO        MOCLDY    82  63  51 SW7       29.83S
BIG TROUT LK   LGT RAIN  64  63  94 NW12G17   29.29R
PICKLE LAKE    CLOUDY    63  61  94 W10       29.42R
DRYDEN         CLOUDY    63  57  82 W18G30    29.65R
KENORA         MOCLDY    63  59  88 W12G18    29.73S
$$
                *** MANITOBA***

CITY           SKY/WX    TMP DP  RH WIND       PRES   REMARKS
BRANDON        PTCLDY    66  59  77 W9        29.90R
DAUPHIN        CLEAR     66  59  77 W7        29.84R
ISLAND LAKE    LGT RAIN  59  55  88 NW17      29.60R
PILOT MOUND      N/A     68  55  64 W6          N/A
THE PAS        PTCLDY    68  59  73 SE5       29.79R
THOMPSON       MOCLDY    63  57  82 N6        29.70R
WINNIPEG       PTCLDY    66  57  72 NW8       29.81R
LYNN LAKE        N/A    N/A N/A N/A MISG        N/A
CHURCHILL      CLOUDY    48  48 100 N17       29.61S FOG
GILLAM         LGT RAIN  55  52  88 NW15G24   29.60R
$$
                ***SASKATCHEWAN***

CITY           SKY/WX    TMP DP  RH WIND       PRES   REMARKS
ESTEVAN        PTCLDY    68  54  60 NW8       30.02R
KINDERSLEY     MOCLDY    66  57  72 N5        30.04
LLOYDMINSTER   LGT RAIN  61  50  67 W20G32    30.03R
PRINCE ALBERT  MOCLDY    70  57  64 W5        29.90R
REGINA         MOCLDY    68  54  60 W10       30.01R
YORKTON        CLEAR     68  57  68 W9        29.91R
N. BATTLEFORD  CLEAR     70  50  49 NW10      30.00R
LA RONGE       MOCLDY    66  54  63 NW3       29.84R
SASKATOON      MOCLDY    66  54  63 W6        29.98S
SWIFT CURRENT  LGT RAIN  63  55  77 N17G23    30.08R
$$
NOTE: THESE ARE AUTOMATED STATIONS WITH LIMITED QUALITY CONTROL
      "FAIR" INDICATES FEW OR NO CLOUDS BELOW 12,000 FEET WITH NO
      SIGNIFICANT WEATHER AND/OR OBSTRUCTIONS TO VISIBILITY.
      SKY/WX - SKY CONDITION AND SIGNIFICANT WEATHER.
      TMP - AIR TEMPERATURE.    DP   - DEWPOINT TEMPERATURE.
      RH  - RELATIVE HUMIDITY.  PRES - PRESSURE.
      HX  - HEAT INDEX.         WCI  - WIND CHILL INDEX.
$



USA.gov is the U.S. government's official web portal to all federal, state and local government web resources and services.